Year,Month,Day,Hour,Minute,Value (Times are PST for temperature in C)
2017,07,12,10,23,15.10
2017,07,12,10,24,15.10
2017,07,12,10,25,15.10
2017,07,12,10,26,15.10
2017,07,12,10,27,15.20
2017,07,12,10,28,15.20
2017,07,12,10,29,15.30
2017,07,12,10,30,15.30
2017,07,12,10,31,15.30
2017,07,12,10,32,15.40
2017,07,12,10,33,15.40
2017,07,12,10,34,15.40
2017,07,12,10,35,15.50
2017,07,12,10,36,15.50
2017,07,12,10,37,15.50
2017,07,12,10,38,15.60
2017,07,12,10,39,15.50
2017,07,12,10,40,15.50
2017,07,12,10,41,15.40
2017,07,12,10,42,15.40
2017,07,12,10,43,15.30
2017,07,12,10,44,15.30
2017,07,12,10,45,15.30
2017,07,12,10,46,15.30
2017,07,12,10,47,15.20
2017,07,12,10,48,15.20
2017,07,12,10,49,15.20
2017,07,12,10,50,15.20
2017,07,12,10,51,15.20
2017,07,12,10,52,15.20
2017,07,12,10,53,15.20
2017,07,12,10,54,15.20
2017,07,12,10,55,15.20
2017,07,12,10,56,15.20
2017,07,12,10,57,15.20
2017,07,12,10,58,15.10
2017,07,12,10,59,15.20
2017,07,12,11,00,15.20
2017,07,12,11,01,15.20
2017,07,12,11,02,15.20
2017,07,12,11,03,15.30
2017,07,12,11,04,15.30
2017,07,12,11,05,15.40
2017,07,12,11,06,15.40
2017,07,12,11,07,15.40
2017,07,12,11,08,15.40
2017,07,12,11,09,15.50
2017,07,12,11,10,15.50
2017,07,12,11,11,15.60
2017,07,12,11,12,15.60
2017,07,12,11,13,15.60
2017,07,12,11,14,15.60
2017,07,12,11,15,15.60
2017,07,12,11,16,15.70
2017,07,12,11,17,15.70
2017,07,12,11,18,15.70
2017,07,12,11,19,15.70
2017,07,12,11,20,15.60
2017,07,12,11,21,15.50
2017,07,12,11,22,15.50
2017,07,12,11,23,15.40
2017,07,12,11,24,15.30
2017,07,12,11,25,15.30
2017,07,12,11,26,15.20
2017,07,12,11,27,15.20
2017,07,12,11,28,15.20
2017,07,12,11,29,15.30
2017,07,12,11,30,15.30
2017,07,12,11,31,15.30
2017,07,12,11,32,15.30
2017,07,12,11,33,15.30
2017,07,12,11,34,15.30
2017,07,12,11,35,15.30
2017,07,12,11,36,15.30
2017,07,12,11,37,15.30
2017,07,12,11,38,15.30
2017,07,12,11,39,15.30
2017,07,12,11,40,15.40
2017,07,12,11,41,15.40
2017,07,12,11,42,15.50
2017,07,12,11,43,15.50
2017,07,12,11,44,15.50
2017,07,12,11,45,15.40
2017,07,12,11,46,15.40
2017,07,12,11,47,15.40
2017,07,12,11,48,15.30
2017,07,12,11,49,15.30
2017,07,12,11,50,15.30
2017,07,12,11,51,15.30
2017,07,12,11,52,15.30
2017,07,12,11,53,15.30
2017,07,12,11,54,15.30
2017,07,12,11,55,15.30
2017,07,12,11,56,15.30
2017,07,12,11,57,15.30
2017,07,12,11,58,15.30
2017,07,12,11,59,15.30
2017,07,12,12,00,15.30
2017,07,12,12,01,15.30
2017,07,12,12,02,15.30
2017,07,12,12,03,15.40
2017,07,12,12,04,15.30
2017,07,12,12,05,15.30
2017,07,12,12,06,15.30
2017,07,12,12,07,15.30
2017,07,12,12,08,15.20
2017,07,12,12,09,15.30
2017,07,12,12,10,15.30
2017,07,12,12,11,15.30
2017,07,12,12,12,15.30
2017,07,12,12,13,15.30
2017,07,12,12,14,15.20
2017,07,12,12,15,15.30
2017,07,12,12,16,15.30
2017,07,12,12,17,15.30
2017,07,12,12,18,15.30
2017,07,12,12,19,15.30
2017,07,12,12,20,15.40
2017,07,12,12,21,15.40
2017,07,12,12,22,15.40
2017,07,12,12,23,15.40
2017,07,12,12,24,15.40
2017,07,12,12,25,15.40
2017,07,12,12,26,15.40
2017,07,12,12,27,15.40
2017,07,12,12,28,15.30
2017,07,12,12,29,15.30
2017,07,12,12,30,15.30
2017,07,12,12,31,15.30
2017,07,12,12,32,15.30
2017,07,12,12,33,15.30
2017,07,12,12,34,15.30
2017,07,12,12,35,15.30
2017,07,12,12,36,15.30
2017,07,12,12,37,15.30
2017,07,12,12,38,15.30
2017,07,12,12,39,15.30
2017,07,12,12,40,15.30
2017,07,12,12,41,15.30
2017,07,12,12,42,15.30
2017,07,12,12,43,15.40
2017,07,12,12,44,15.40
2017,07,12,12,45,15.30
2017,07,12,12,46,15.30
2017,07,12,12,47,15.30
2017,07,12,12,48,15.30
2017,07,12,12,49,15.30
2017,07,12,12,50,15.30
2017,07,12,12,51,15.20
2017,07,12,12,52,15.20
2017,07,12,12,53,15.20
2017,07,12,12,54,15.30
2017,07,12,12,55,15.30
2017,07,12,12,56,15.30
2017,07,12,12,57,15.30
2017,07,12,12,58,15.30
2017,07,12,12,59,15.30
2017,07,12,13,00,15.30
2017,07,12,13,01,15.30
2017,07,12,13,02,15.20
2017,07,12,13,03,15.20
2017,07,12,13,04,15.20
2017,07,12,13,05,15.20
2017,07,12,13,06,15.30
2017,07,12,13,07,15.30
2017,07,12,13,08,15.30
2017,07,12,13,09,15.30
2017,07,12,13,10,15.30
2017,07,12,13,11,15.50
2017,07,12,13,12,15.50
2017,07,12,13,13,15.60
2017,07,12,13,14,15.70
2017,07,12,13,15,15.80
2017,07,12,13,16,15.80
2017,07,12,13,17,15.70
2017,07,12,13,18,15.70
2017,07,12,13,19,15.70
2017,07,12,13,20,15.60
2017,07,12,13,21,15.60
2017,07,12,13,22,15.60
2017,07,12,13,23,15.60
2017,07,12,13,24,15.60
2017,07,12,13,25,15.60
2017,07,12,13,26,15.60
2017,07,12,13,27,15.60
2017,07,12,13,28,15.70
2017,07,12,13,29,15.70
2017,07,12,13,30,15.70
2017,07,12,13,31,15.70
2017,07,12,13,32,15.70
2017,07,12,13,33,15.60
2017,07,12,13,34,15.60
2017,07,12,13,35,15.50
2017,07,12,13,36,15.50
2017,07,12,13,37,15.50
2017,07,12,13,38,15.50
2017,07,12,13,39,15.50
2017,07,12,13,40,15.60
2017,07,12,13,41,15.60
2017,07,12,13,42,15.60
2017,07,12,13,43,15.70
2017,07,12,13,44,15.80
2017,07,12,13,45,15.80
2017,07,12,13,46,15.80
2017,07,12,13,47,15.80
2017,07,12,13,48,15.80
2017,07,12,13,49,15.80
2017,07,12,13,50,15.80
2017,07,12,13,51,15.90
2017,07,12,13,52,15.90
2017,07,12,13,53,15.90
2017,07,12,13,54,15.90
2017,07,12,13,55,15.90
2017,07,12,13,56,15.80
2017,07,12,13,57,15.80
2017,07,12,13,58,15.80
2017,07,12,13,59,15.80
2017,07,12,14,00,15.80
2017,07,12,14,01,15.80
2017,07,12,14,02,15.80
2017,07,12,14,03,15.80
2017,07,12,14,04,15.80
2017,07,12,14,05,15.80
2017,07,12,14,06,15.70
2017,07,12,14,07,15.70
2017,07,12,14,08,15.70
2017,07,12,14,09,15.70
2017,07,12,14,10,15.60
2017,07,12,14,11,15.60
2017,07,12,14,12,15.70
2017,07,12,14,13,15.70
2017,07,12,14,14,15.70
2017,07,12,14,15,15.70
2017,07,12,14,16,15.70
2017,07,12,14,17,15.70
2017,07,12,14,18,15.70
2017,07,12,14,19,15.70
2017,07,12,14,20,15.80
2017,07,12,14,21,15.80
2017,07,12,14,22,15.80
2017,07,12,14,23,15.80
2017,07,12,14,24,15.80
2017,07,12,14,25,15.80
2017,07,12,14,26,15.80
2017,07,12,14,27,15.80
2017,07,12,14,28,15.70
2017,07,12,14,29,15.70
2017,07,12,14,30,15.70
2017,07,12,14,31,15.70
2017,07,12,14,32,15.80
2017,07,12,14,33,15.90
2017,07,12,14,34,16.00
2017,07,12,14,35,16.10
2017,07,12,14,36,16.10
2017,07,12,14,37,16.20
2017,07,12,14,38,16.10
2017,07,12,14,39,16.10
2017,07,12,14,40,16.10
2017,07,12,14,41,16.10
2017,07,12,14,42,16.10
2017,07,12,14,43,16.20
2017,07,12,14,44,16.20
2017,07,12,14,45,16.20
2017,07,12,14,46,16.20
2017,07,12,14,47,16.30
2017,07,12,14,48,16.40
2017,07,12,14,49,16.50
2017,07,12,14,50,16.50
2017,07,12,14,51,16.60
2017,07,12,14,52,16.50
2017,07,12,14,53,16.50
2017,07,12,14,54,16.50
2017,07,12,14,55,16.40
2017,07,12,14,56,16.40
2017,07,12,14,57,16.40
2017,07,12,14,58,16.30
2017,07,12,14,59,16.30
2017,07,12,15,00,16.30
2017,07,12,15,01,16.30
2017,07,12,15,02,16.30
2017,07,12,15,03,16.20
2017,07,12,15,04,16.20
2017,07,12,15,05,16.10
2017,07,12,15,06,16.10
2017,07,12,15,07,16.10
2017,07,12,15,08,16.10
2017,07,12,15,09,16.10
2017,07,12,15,10,16.10
2017,07,12,15,11,16.20
2017,07,12,15,12,16.20
2017,07,12,15,13,16.20
2017,07,12,15,14,16.20
2017,07,12,15,15,16.20
2017,07,12,15,16,16.30
2017,07,12,15,17,16.30
2017,07,12,15,18,16.30
2017,07,12,15,19,16.30
2017,07,12,15,20,16.30
2017,07,12,15,21,16.30
2017,07,12,15,22,16.40
2017,07,12,15,23,16.40
2017,07,12,15,24,16.40
2017,07,12,15,25,16.40
2017,07,12,15,26,16.50
2017,07,12,15,27,16.50
2017,07,12,15,28,16.50
2017,07,12,15,29,16.50
2017,07,12,15,30,16.50
2017,07,12,15,31,16.50
2017,07,12,15,32,16.60
2017,07,12,15,33,16.50
2017,07,12,15,34,16.50
2017,07,12,15,35,16.50
2017,07,12,15,36,16.40
2017,07,12,15,37,16.40
2017,07,12,15,38,16.40
2017,07,12,15,39,16.50
2017,07,12,15,40,16.50
2017,07,12,15,41,16.60
2017,07,12,15,42,16.60
2017,07,12,15,43,16.70
2017,07,12,15,44,16.60
2017,07,12,15,45,16.70
2017,07,12,15,46,16.70
2017,07,12,15,47,16.70
2017,07,12,15,48,16.60
2017,07,12,15,49,16.60
2017,07,12,15,50,16.60
2017,07,12,15,51,16.60
2017,07,12,15,52,16.70
2017,07,12,15,53,16.70
2017,07,12,15,54,16.80
2017,07,12,15,55,16.80
2017,07,12,15,56,16.80
2017,07,12,15,57,16.90
2017,07,12,15,58,17.00
2017,07,12,15,59,17.10
2017,07,12,16,00,17.20
2017,07,12,16,01,17.20
2017,07,12,16,02,17.30
2017,07,12,16,03,17.20
2017,07,12,16,04,17.20
2017,07,12,16,05,17.10
2017,07,12,16,06,17.00
2017,07,12,16,07,16.90
2017,07,12,16,08,16.90
2017,07,12,16,09,16.80
2017,07,12,16,10,16.90
2017,07,12,16,11,16.90
2017,07,12,16,12,17.00
2017,07,12,16,13,16.90
2017,07,12,16,14,16.90
2017,07,12,16,15,16.80
2017,07,12,16,16,16.80
2017,07,12,16,17,16.80
2017,07,12,16,18,16.70
2017,07,12,16,19,16.60
2017,07,12,16,20,16.60
2017,07,12,16,21,16.50
2017,07,12,16,22,16.40
2017,07,12,16,23,16.30
2017,07,12,16,24,16.20
2017,07,12,16,25,16.20
2017,07,12,16,26,16.10
2017,07,12,16,27,16.10
2017,07,12,16,28,16.10
2017,07,12,16,29,16.10
2017,07,12,16,30,16.10
2017,07,12,16,31,16.20
2017,07,12,16,32,16.30
2017,07,12,16,33,16.30
2017,07,12,16,34,16.30
2017,07,12,16,35,16.30
2017,07,12,16,36,16.30
2017,07,12,16,37,16.40
2017,07,12,16,38,16.40
2017,07,12,16,39,16.40
2017,07,12,16,40,16.30
2017,07,12,16,41,16.30
2017,07,12,16,42,16.30
2017,07,12,16,43,16.30
2017,07,12,16,44,16.30
2017,07,12,16,45,16.30
2017,07,12,16,46,16.30
2017,07,12,16,47,16.40
2017,07,12,16,48,16.40
2017,07,12,16,49,16.40
2017,07,12,16,50,16.30
2017,07,12,16,51,16.30
2017,07,12,16,52,16.40
2017,07,12,16,53,16.40
2017,07,12,16,54,16.40
2017,07,12,16,55,16.40
2017,07,12,16,56,16.40
2017,07,12,16,57,16.50
2017,07,12,16,58,16.60
2017,07,12,16,59,16.50
2017,07,12,17,00,16.50
2017,07,12,17,01,16.50
2017,07,12,17,02,16.50
2017,07,12,17,03,16.50
2017,07,12,17,04,16.60
2017,07,12,17,05,16.70
2017,07,12,17,06,16.80
2017,07,12,17,07,16.90
2017,07,12,17,08,17.00
2017,07,12,17,09,17.10
2017,07,12,17,10,17.20
2017,07,12,17,11,17.20
2017,07,12,17,12,17.10
2017,07,12,17,13,17.10
2017,07,12,17,14,17.00
2017,07,12,17,15,17.00
2017,07,12,17,16,16.90
2017,07,12,17,17,16.80
2017,07,12,17,18,16.70
2017,07,12,17,19,16.60
2017,07,12,17,20,16.50
2017,07,12,17,21,16.50
2017,07,12,17,22,16.40
2017,07,12,17,23,16.30
2017,07,12,17,24,16.30
2017,07,12,17,25,16.20
2017,07,12,17,26,16.20
2017,07,12,17,27,16.30
2017,07,12,17,28,16.30
2017,07,12,17,29,16.30
2017,07,12,17,30,16.30
2017,07,12,17,31,16.30
2017,07,12,17,32,16.30
2017,07,12,17,33,16.40
2017,07,12,17,34,16.50
2017,07,12,17,35,16.60
2017,07,12,17,36,16.60
2017,07,12,17,37,16.70
2017,07,12,17,38,16.80
2017,07,12,17,39,16.80
2017,07,12,17,40,16.80
2017,07,12,17,41,16.80
2017,07,12,17,42,16.90
2017,07,12,17,43,16.90
2017,07,12,17,44,16.90
2017,07,12,17,45,16.90
2017,07,12,17,46,16.90
2017,07,12,17,47,16.90
2017,07,12,17,48,16.80
2017,07,12,17,49,16.80
2017,07,12,17,50,16.70
2017,07,12,17,51,16.70
2017,07,12,17,52,16.70
2017,07,12,17,53,16.70
2017,07,12,17,54,16.70
2017,07,12,17,55,16.70
2017,07,12,17,56,16.70
2017,07,12,17,57,16.70
2017,07,12,17,58,16.70
2017,07,12,17,59,16.70
2017,07,12,18,00,16.70
2017,07,12,18,01,16.60
2017,07,12,18,02,16.60
2017,07,12,18,03,16.50
2017,07,12,18,04,16.50
2017,07,12,18,05,16.40
2017,07,12,18,06,16.30
2017,07,12,18,07,16.20
2017,07,12,18,08,16.20
2017,07,12,18,09,16.10
2017,07,12,18,10,16.10
2017,07,12,18,11,16.10
2017,07,12,18,12,16.10
2017,07,12,18,13,16.10
2017,07,12,18,14,16.10
2017,07,12,18,15,16.10
2017,07,12,18,16,16.10
2017,07,12,18,17,16.10
2017,07,12,18,18,16.20
2017,07,12,18,19,16.20
2017,07,12,18,20,16.20
2017,07,12,18,21,16.20
2017,07,12,18,22,16.30
2017,07,12,18,23,16.30
2017,07,12,18,24,16.30
2017,07,12,18,25,16.30
2017,07,12,18,26,16.30
2017,07,12,18,27,16.30
2017,07,12,18,28,16.20
2017,07,12,18,29,16.20
2017,07,12,18,30,16.20
2017,07,12,18,31,16.20
2017,07,12,18,32,16.20
2017,07,12,18,33,16.10
2017,07,12,18,34,16.10
2017,07,12,18,35,16.00
2017,07,12,18,36,15.90
2017,07,12,18,37,15.90
2017,07,12,18,38,15.80
2017,07,12,18,39,15.80
2017,07,12,18,40,15.80
2017,07,12,18,41,15.70
2017,07,12,18,42,15.70
2017,07,12,18,43,15.80
2017,07,12,18,44,15.80
2017,07,12,18,45,15.80
2017,07,12,18,46,15.80
2017,07,12,18,47,15.80
2017,07,12,18,48,15.80
2017,07,12,18,49,15.80
2017,07,12,18,50,15.80
2017,07,12,18,51,15.80
2017,07,12,18,52,15.80
2017,07,12,18,53,15.80
2017,07,12,18,54,15.80
2017,07,12,18,55,15.80
2017,07,12,18,56,15.80
2017,07,12,18,57,15.80
2017,07,12,18,58,15.80
2017,07,12,18,59,15.80
2017,07,12,19,00,15.80
2017,07,12,19,01,15.80
2017,07,12,19,02,15.80
2017,07,12,19,03,15.80
2017,07,12,19,04,15.80
2017,07,12,19,05,15.80
2017,07,12,19,06,15.80
2017,07,12,19,07,15.80
2017,07,12,19,08,15.70
2017,07,12,19,09,15.70
2017,07,12,19,10,15.60
2017,07,12,19,11,15.60
2017,07,12,19,12,15.60
2017,07,12,19,13,15.60
2017,07,12,19,14,15.60
2017,07,12,19,15,15.60
2017,07,12,19,16,15.50
2017,07,12,19,17,15.50
2017,07,12,19,18,15.50
2017,07,12,19,19,15.50
2017,07,12,19,20,15.50
2017,07,12,19,21,15.60
2017,07,12,19,22,15.60
2017,07,12,19,23,15.60
2017,07,12,19,24,15.60
2017,07,12,19,25,15.60
2017,07,12,19,26,15.60
2017,07,12,19,27,15.60
2017,07,12,19,28,15.60
2017,07,12,19,29,15.60
2017,07,12,19,30,15.60
2017,07,12,19,31,15.60
2017,07,12,19,32,15.50
2017,07,12,19,33,15.50
2017,07,12,19,34,15.50
2017,07,12,19,35,15.40
2017,07,12,19,36,15.40
2017,07,12,19,37,15.40
2017,07,12,19,38,15.40
2017,07,12,19,39,15.30
2017,07,12,19,40,15.30
2017,07,12,19,41,15.30
2017,07,12,19,42,15.30
2017,07,12,19,43,15.20
2017,07,12,19,44,15.20
2017,07,12,19,45,15.20
2017,07,12,19,46,15.20
2017,07,12,19,47,15.20
2017,07,12,19,48,15.20
2017,07,12,19,49,15.20
2017,07,12,19,50,15.20
2017,07,12,19,51,15.10
2017,07,12,19,52,15.10
2017,07,12,19,53,15.10
2017,07,12,19,54,15.10
2017,07,12,19,55,15.10
2017,07,12,19,56,15.10
2017,07,12,19,57,15.10
2017,07,12,19,58,15.10
2017,07,12,19,59,15.10
2017,07,12,20,00,15.10
2017,07,12,20,01,15.00
2017,07,12,20,02,15.00
2017,07,12,20,03,14.90
2017,07,12,20,04,14.90
2017,07,12,20,05,14.90
2017,07,12,20,06,14.90
2017,07,12,20,07,14.90
2017,07,12,20,08,14.90
2017,07,12,20,09,14.90
2017,07,12,20,10,14.90
2017,07,12,20,11,14.90
2017,07,12,20,12,14.90
2017,07,12,20,13,14.90
2017,07,12,20,14,14.90
2017,07,12,20,15,14.90
2017,07,12,20,16,14.90
2017,07,12,20,17,14.90
2017,07,12,20,18,14.90
2017,07,12,20,19,14.90
2017,07,12,20,20,14.80
2017,07,12,20,21,14.80
2017,07,12,20,22,14.80
2017,07,12,20,23,14.80
2017,07,12,20,24,14.80
2017,07,12,20,25,14.80
2017,07,12,20,26,14.80
2017,07,12,20,27,14.80
2017,07,12,20,28,14.80
2017,07,12,20,29,14.80
2017,07,12,20,30,14.80
2017,07,12,20,31,14.80
2017,07,12,20,32,14.80
2017,07,12,20,33,14.80
2017,07,12,20,34,14.80
2017,07,12,20,35,14.80
2017,07,12,20,36,14.80
2017,07,12,20,37,14.80
2017,07,12,20,38,14.80
2017,07,12,20,39,14.80
2017,07,12,20,40,14.80
2017,07,12,20,41,14.80
2017,07,12,20,42,14.80
2017,07,12,20,43,14.80
2017,07,12,20,44,14.80
2017,07,12,20,45,14.80
2017,07,12,20,46,14.80
2017,07,12,20,47,14.80
2017,07,12,20,48,14.80
2017,07,12,20,49,14.80
2017,07,12,20,50,14.80
2017,07,12,20,51,14.80
2017,07,12,20,52,14.80
2017,07,12,20,53,14.80
2017,07,12,20,54,14.80
